Location: Newark
(5.8900°S, 42.6378°W)
Time: 20:45:24
(UTC+00:00)

Vanguard 1 Rocket - Pass Details

Date: 20 October 2019
Orbit: 651 x 4226 km, 34.3° (Epoch: 20 November)

Event Time Altitude Azimuth Distance (km) Brightness Sun altitude
Rises 17:57:19 0° 324° (NW) 7,984 12.5 39.9°
Reaches altitude 10° 18:04:32 10° 335° (NNW) 7,262 12.3 38.1°
Maximum altitude 18:24:53 28° 27° (NNE) 5,842 11.4 33.1°
Drops below altitude 10° 18:41:53 10° 78° (ENE) 6,234 11.2 28.9°
Sets 18:47:08 0° 89° (E) 6,764 11.3 27.6°
